When you browse on this site, cookies collect data to enhance your experience and personalize the content and advertising you see.
Visit our Privacy Policy to learn more. By continuing to use the site, you agree to this use of cookies and data.
  • In Austria
  • List of Countries
  • For 7 days
  • Water Temperature
  • Weather Map
  • News
  • Weather Widgets
  • user-avatar
    Login

    Hourly Weather Silvia

    Today, 23 January, Thursday

    Time Temperature Precipitation Wind Pressure Humidity
    00:00 +11°C° 0 mm 1 mps 560 mmHg 96%
    01:00 +11°C° 0 mm 1 mps 560 mmHg 96%
    02:00 +11°C° 0 mm 1 mps 560 mmHg 96%
    03:00 +11°C° 0 mm 1 mps 559 mmHg 96%
    04:00 +11°C° 0 mm 1 mps 559 mmHg 96%
    05:00 +12°C° 0 mm 1 mps 559 mmHg 95%
    06:00 +12°C° 0 mm 1 mps 560 mmHg 94%
    07:00 +12°C° 0 mm 1 mps 560 mmHg 94%
    08:00 +14°C° 0 mm 1 mps 562 mmHg 83%
    09:00 +18°C° 0 mm 1 mps 563 mmHg 73%
    10:00 +20°C° 0 mm 1 mps 565 mmHg 62%
    11:00 +21°C° 0.3 mm 1 mps 564 mmHg 63%
    12:00 +21°C° 0.3 mm 1 mps 564 mmHg 64%
    13:00 +20°C° 0.3 mm 2 mps 563 mmHg 65%
    14:00 +20°C° 0.8 mm 1 mps 562 mmHg 71%
    15:00 +19°C° 0.8 mm 1 mps 561 mmHg 78%
    16:00 +18°C° 0.8 mm 1 mps 560 mmHg 84%
    17:00 +16°C° 0.5 mm 1 mps 560 mmHg 88%
    18:00 +14°C° 0.5 mm 1 mps 560 mmHg 93%
    19:00 +12°C° 0.5 mm 0 mps 559 mmHg 97%
    20:00 +12°C° 0.1 mm 0 mps 560 mmHg 97%
    21:00 +12°C° 0.1 mm 0 mps 560 mmHg 97%
    22:00 +12°C° 0.1 mm 0 mps 560 mmHg 97%
    23:00 +11°C° 0 mm 0 mps 560 mmHg 97%

    Tomorrow, 24 January, Friday

    Time Temperature Precipitation Wind Pressure Humidity
    00:00 +11°C° 0 mm 0 mps 560 mmHg 97%
    01:00 +11°C° 0 mm 0 mps 560 mmHg 97%
    02:00 +11°C° 0 mm 0 mps 560 mmHg 97%
    03:00 +11°C° 0 mm 0 mps 560 mmHg 96%
    04:00 +11°C° 0 mm 0 mps 559 mmHg 96%
    05:00 +11°C° 0 mm 0 mps 560 mmHg 95%
    06:00 +11°C° 0 mm 0 mps 560 mmHg 94%
    07:00 +11°C° 0 mm 0 mps 560 mmHg 94%
    08:00 +13°C° 0 mm 0 mps 562 mmHg 84%
    09:00 +18°C° 0 mm 1 mps 563 mmHg 74%
    10:00 +20°C° 0 mm 1 mps 565 mmHg 64%
    11:00 +20°C° 0.6 mm 1 mps 564 mmHg 69%
    12:00 +20°C° 0.6 mm 1 mps 563 mmHg 74%
    13:00 +19°C° 0.6 mm 1 mps 562 mmHg 79%
    14:00 +19°C° 1.2 mm 1 mps 561 mmHg 83%
    15:00 +18°C° 1.2 mm 1 mps 561 mmHg 87%
    16:00 +16°C° 1.2 mm 1 mps 560 mmHg 91%
    17:00 +16°C° 1 mm 1 mps 560 mmHg 93%
    18:00 +14°C° 1 mm 0 mps 560 mmHg 95%
    19:00 +13°C° 1 mm 0 mps 560 mmHg 98%
    20:00 +13°C° 0.6 mm 0 mps 560 mmHg 98%
    21:00 +12°C° 0.6 mm 0 mps 561 mmHg 97%
    22:00 +12°C° 0.6 mm 0 mps 561 mmHg 97%
    23:00 +12°C° 0.7 mm 0 mps 561 mmHg 97%

    Day after tomorrow, 25 January, Saturday

    Time Temperature Precipitation Wind Pressure Humidity
    00:00 +12°C° 0.7 mm 0 mps 561 mmHg 98%
    01:00 +12°C° 0.7 mm 0 mps 561 mmHg 98%
    02:00 +12°C° 0.8 mm 0 mps 560 mmHg 98%
    03:00 +12°C° 0.8 mm 0 mps 560 mmHg 98%
    04:00 +12°C° 0.8 mm 0 mps 560 mmHg 99%
    05:00 +12°C° 1.1 mm 0 mps 560 mmHg 98%
    06:00 +12°C° 1.1 mm 0 mps 561 mmHg 98%
    07:00 +12°C° 1.1 mm 0 mps 561 mmHg 98%
    08:00 +13°C° 0.4 mm 0 mps 562 mmHg 93%
    09:00 +15°C° 0.4 mm 0 mps 563 mmHg 89%
    10:00 +16°C° 0.4 mm 0 mps 564 mmHg 84%
    11:00 +16°C° 1.3 mm 0 mps 563 mmHg 86%
    12:00 +16°C° 1.3 mm 0 mps 563 mmHg 88%
    13:00 +19°C° 1.3 mm 1 mps 562 mmHg 90%
    14:00 +16°C° 1.9 mm 0 mps 562 mmHg 91%
    15:00 +16°C° 1.9 mm 0 mps 561 mmHg 92%
    16:00 +15°C° 1.9 mm 0 mps 560 mmHg 93%
    17:00 +15°C° 1.1 mm 0 mps 560 mmHg 95%
    18:00 +14°C° 1.1 mm 0 mps 560 mmHg 97%
    19:00 +13°C° 1.1 mm 0 mps 560 mmHg 98%
    20:00 +13°C° 0.4 mm 0 mps 561 mmHg 98%
    21:00 +13°C° 0.4 mm 0 mps 561 mmHg 98%
    22:00 +12°C° 0.4 mm 0 mps 561 mmHg 98%
    23:00 +12°C° 0.2 mm 0 mps 561 mmHg 98%

    26 January, Sunday

    Time Temperature Precipitation Wind Pressure Humidity
    00:00 +12°C° 0.2 mm 0 mps 561 mmHg 98%
    01:00 +12°C° 0.2 mm 0 mps 561 mmHg 98%
    02:00 +12°C° 0.2 mm 0 mps 560 mmHg 98%
    03:00 +12°C° 0.2 mm 0 mps 560 mmHg 98%
    04:00 +12°C° 0.2 mm 0 mps 560 mmHg 98%
    05:00 +12°C° 0.1 mm 0 mps 560 mmHg 98%
    06:00 +12°C° 0.1 mm 0 mps 561 mmHg 98%
    07:00 +12°C° 0.1 mm 0 mps 561 mmHg 98%
    08:00 +13°C° 0.3 mm 0 mps 562 mmHg 96%
    09:00 +14°C° 0.3 mm 0 mps 562 mmHg 95%
    10:00 +14°C° 0.3 mm 0 mps 563 mmHg 93%
    11:00 +15°C° 1 mm 0 mps 563 mmHg 93%
    12:00 +15°C° 1 mm 0 mps 562 mmHg 92%
    13:00 +16°C° 1 mm 0 mps 562 mmHg 91%
    14:00 +15°C° 1.5 mm 0 mps 562 mmHg 92%
    15:00 +15°C° 1.5 mm 0 mps 561 mmHg 93%
    16:00 +16°C° 1.5 mm 1 mps 560 mmHg 94%
    17:00 +14°C° 1 mm 0 mps 561 mmHg 95%
    18:00 +13°C° 1 mm 0 mps 561 mmHg 97%
    19:00 +13°C° 1 mm 0 mps 561 mmHg 98%
    20:00 +12°C° 1.1 mm 0 mps 561 mmHg 98%
    21:00 +12°C° 1.1 mm 0 mps 561 mmHg 98%
    22:00 +12°C° 1.1 mm 0 mps 562 mmHg 99%
    23:00 +12°C° 1.2 mm 0 mps 561 mmHg 99%

    27 January, Monday

    Time Temperature Precipitation Wind Pressure Humidity
    00:00 +12°C° 1.2 mm 0 mps 561 mmHg 99%
    01:00 +12°C° 1.2 mm 0 mps 561 mmHg 99%
    02:00 +12°C° 0.9 mm 0 mps 561 mmHg 99%
    03:00 +12°C° 0.9 mm 0 mps 560 mmHg 99%
    04:00 +12°C° 0.9 mm 0 mps 560 mmHg 99%
    05:00 +12°C° 0.7 mm 0 mps 560 mmHg 99%
    06:00 +12°C° 0.7 mm 0 mps 561 mmHg 98%
    07:00 +12°C° 0.7 mm 0 mps 561 mmHg 98%
    08:00 +12°C° 0.3 mm 0 mps 562 mmHg 97%
    09:00 +13°C° 0.3 mm 0 mps 562 mmHg 95%
    10:00 +14°C° 0.3 mm 0 mps 563 mmHg 93%
    11:00 +14°C° 0.9 mm 0 mps 563 mmHg 93%
    12:00 +15°C° 0.9 mm 0 mps 563 mmHg 93%
    13:00 +18°C° 0.9 mm 1 mps 563 mmHg 92%
    14:00 +15°C° 1.4 mm 0 mps 562 mmHg 94%
    15:00 +14°C° 1.4 mm 0 mps 561 mmHg 95%
    16:00 +14°C° 1.4 mm 0 mps 560 mmHg 97%
    17:00 +13°C° 1.1 mm 0 mps 560 mmHg 97%
    18:00 +13°C° 1.1 mm 0 mps 560 mmHg 98%
    19:00 +12°C° 1.1 mm 0 mps 561 mmHg 98%
    20:00 +12°C° 0.6 mm 0 mps 561 mmHg 98%
    21:00 +12°C° 0.6 mm 0 mps 561 mmHg 98%
    22:00 +11°C° 0.6 mm 0 mps 561 mmHg 98%
    23:00 +11°C° 0.2 mm 0 mps 561 mmHg 98%

    28 January, Tuesday

    Time Temperature Precipitation Wind Pressure Humidity
    00:00 +11°C° 0.2 mm 0 mps 561 mmHg 98%
    01:00 +11°C° 0.2 mm 0 mps 560 mmHg 98%
    02:00 +11°C° 0.1 mm 0 mps 560 mmHg 98%
    03:00 +11°C° 0.1 mm 0 mps 560 mmHg 99%
    04:00 +11°C° 0.1 mm 0 mps 560 mmHg 99%
    05:00 +11°C° 0.1 mm 0 mps 560 mmHg 98%
    06:00 +11°C° 0.1 mm 0 mps 561 mmHg 98%
    07:00 +11°C° 0.1 mm 0 mps 561 mmHg 97%
    08:00 +13°C° 0.1 mm 0 mps 562 mmHg 90%
    09:00 +15°C° 0.1 mm 0 mps 563 mmHg 82%
    10:00 +17°C° 0.1 mm 0 mps 564 mmHg 74%
    11:00 +17°C° 0.6 mm 0 mps 564 mmHg 75%
    12:00 +19°C° 0.6 mm 1 mps 564 mmHg 75%
    13:00 +20°C° 0.6 mm 1 mps 563 mmHg 75%
    14:00 +19°C° 1 mm 1 mps 562 mmHg 79%
    15:00 +18°C° 1 mm 1 mps 562 mmHg 83%
    16:00 +16°C° 1 mm 0 mps 561 mmHg 87%
    17:00 +15°C° 0.7 mm 0 mps 560 mmHg 91%
    18:00 +13°C° 0.7 mm 0 mps 560 mmHg 94%
    19:00 +12°C° 0.7 mm 0 mps 560 mmHg 98%
    20:00 +12°C° 0.3 mm 0 mps 560 mmHg 98%
    21:00 +12°C° 0.3 mm 0 mps 561 mmHg 98%
    22:00 +12°C° 0.3 mm 0 mps 561 mmHg 98%
    23:00 +12°C° 0.2 mm 0 mps 561 mmHg 98%
    Show more